www.pogodaiklimat.ru

Погода и климат >> Архив погоды >> Россия >> Архангельская область >> Карпогоры


ПОГОДА в Карпогорах

  • Прогноз погоды в Карпогорах
  • Монитор погоды в Карпогорах

АРХИВ ПОГОДЫ в Карпогорах

Время (UTC), дата Ветер
(напр.,м/с)
 
Видим.   Явления Облачность Т
(С)
Тd
(С)
f
(%)
Тe
(С)
Тes
(С)
Комфортность P
(гПа)
Po
(гПа)
Тmin
(С)
Tmax
(С)
R
(мм)
R24
(мм)
S
(см)
21 17.06 В 1 20 км 3/0
[Ac trans]
+7.0 +3.0 76 +6 +6 1006.7 999.0
00 18.06 штиль 0 50 км 1/0
[]
+3.2 +1.7 90 +2 +2 1006.7 998.9
03 18.06 штиль 0 50 км 3/0
[Ac trans]
+11.5 +4.8 63 +11 +14 1006.1 998.6 +2.5
06 18.06 С 1 20 км 9/0
[Ac As]
+14.1 +6.5 60 +15 +19 1005.9 998.4
09 18.06 З 2 50 км 5/1
[Cu med, cong Ac trans]
+17.9 +5.2 43 +18 +27 1006.1 998.7
12 18.06 С 2 50 км 3/3
[Cu med, cong Ci fib]
+19.8 +5.9 40 +21 +28 комфорт 1005.2 997.9
15 18.06 С 3 50 км 3/1 1000 м
[Cu hum Ci sp]
+17.8 +5.6 45 +18 +20 1006.1 998.7 +20.6
18 18.06 С 3 20 км 5/0
[Ac trans Ci fib]
+13.1 +4.6 56 +12 +12 1007.2 999.7
21 18.06 С 2 20 км 3/0
[Ac trans]
+6.8 +1.5 69 +5 +5 1009.1 1001.4
00 19.06 С 1 20 км 1/0
[Ac trans]
+3.0 +0.7 85 +1 +2 1010.4 1002.6
03 19.06 СВ 1 20 км 1/0
[]
+7.2 +1.5 67 +7 +10 1010.7 1003.0 +2.5
06 19.06 Ю 1 50 км 8/0
[Cs]
+12.0 +1.8 50 +12 +21 1010.1 1002.6
09 19.06 ЮВ 2 50 км 9/3 600 м
[Sc Ac As Cs]
+14.9 +3.9 48 +15 +20 1008.7 1001.2
12 19.06 ЮВ 1 10 км слаб. дождь 10/0
[As op]
+11.4 +9.3 87 +11 +13 1007.9 1000.4
15 19.06 Ю 2 20 км {ливн. осадки, дождь} 8/4 600 м
[Cb cap Ac As Cs]
+12.7 +10.9 89 +12 +13 1006.1 998.6 +15.2 4
18 19.06 Ю 1 20 км {ливн. осадки, дождь} 10/5 600 м
[Sc Ac As]
+13.0 +10.9 87 +13 +13 1005.1 997.6
21 19.06 З 2 4000 м ливневой дождь 10/10 270 м
[Cb cap]
+12.9 +12.3 96 +12 +12 1004.7 997.2
00 20.06 З 1 20 км {ливн. осадки} 8/6 600 м
[Cb cap Ac trans Ci fib]
+11.7 +11.4 98 +11 +11 1004.4 996.9
03 20.06 З 2 10 км слаб. ливневой дождь 10/10 300 м
[Cb cap]
+12.4 +11.8 96 +11 +11 1005.8 998.3 +11.5 5
06 20.06 С 3 20 км {ливн. осадки} 9/9 420 м
[Cb cap]
+8.8 +6.9 88 +6 +7 1009.6 1002.0 +8.8
09 20.06 СЗ 1 20 км 9/9 750 м
[Cb cap]
+10.2 +6.1 76 +10 +11 1012.6 1004.9
12 20.06 СЗ 2 50 км 8/8 600 м
[Cu Sc]
+13.0 +4.8 57 +12 +14 1013.9 1006.3
15 20.06 С 2 50 км 8/5 600 м
[Cb cap Ac trans]
+14.1 +4.9 54 +14 +15 1014.6 1007.0 +14.7 0.0
18 20.06 штиль 0 20 км 8/4 1000 м
[Sc Ac trans]
+12.0 +8.7 80 +11 +12 1014.5 1006.9
21 20.06 С 1 20 км 4/1 1000 м
[Sc Ac trans Ci fib]
+8.0 +5.3 83 +7 +7 1015.8 1008.1
00 21.06 штиль 0 20 км 3/0
[Ac trans]
+3.0 +2.6 97 +2 +2 1017.0 1009.1
03 21.06 Ю 2 20 км 6/0
[Ci fib]
+10.7 +6.7 76 +9 +12 1017.1 1009.4 +2.8
06 21.06 ЮЗ 1 50 км 9/0
[Ac trans]
+15.9 +6.1 52 +17 +22 1016.6 1009.1
09 21.06 Ю 1 50 км 10/0
[Ac As]
+16.5 +3.8 43 +17 +22 1016.3 1008.8
12 21.06 В 1 50 км 10/0
[Ac As]
+16.7 +5.7 48 +18 +21 1015.7 1008.2
15 21.06 В 2 50 км 9/0
[Ac trans Ci fib]
+16.6 +7.1 53 +17 +18 1013.4 1005.9 +17.1
18 21.06 В 2 20 км 10/5 600 м
[Cb cap Ac und]
+16.0 +7.4 57 +16 +16 1010.9 1003.5
21 21.06 С 3 20 км {ливн. осадки} 10/6 720 м
[Cb cap Ac As]
+11.7 +10.0 89 +10 +10 1009.2 1001.6
00 22.06 ЮВ 2
{11}
20 км {ливн. осадки} 6/0
[Ac trans Ci fib]
+11.2 +8.9 86 +10 +10 1006.9 999.3
03 22.06 Ю 1 50 км в посл. час ливневой дождь 8/4 600 м
[Cb cap Ac trans]
+13.2 +11.5 89 +13 +14 1005.2 997.7 +11.0 1
06 22.06 З 2 50 км {ливн. осадки} 8/3 1000 м
[Sc Ac cast Ci sp]
+22.2 +15.4 65 +26 +30 душно 1004.3 997.0
09 22.06 З 2 50 км 8/4 1000 м
[Cu med, cong Ci]
+24.7 +14.1 52 +27 +34 жарко 1004.6 997.4
12 22.06 С 2 50 км 3/3 1000 м
[Cu med, cong Ci sp]
+24.8 +16.4 60 +28 +35 жарко 1004.3 997.2
15 22.06 СВ 2 50 км 10/0
[Ac As]
+21.8 +15.3 67 +25 +26 комфорт 1004.5 997.3 +26.0
18 22.06 В 1 10 км слаб. ливневой дождь, в посл. час гроза 9/8 500 м
[Cb cap Ac cuf Ci ing]
+17.0 +16.4 96 +18 +18 1004.5 997.1
21 22.06 штиль 0 4000 м дымка {ливн. осадки} 10/8 210 м
[St Ac As]
+14.3 +14.0 98 +14 +14 1003.6 996.1
00 23.06 З 2 4000 м дымка {ливн. осадки} 10/8 330 м
[St Ac As]
+15.6 +15.1 97 +15 +15 1003.6 996.2
03 23.06 З 2 20 км 1/0
[]
+15.4 +12.2 81 +15 +18 1004.7 997.3 +14.0 4
06 23.06 З 4-11
{11}
20 км 8/6 600 м
[Cb cap Ac trans]
+15.6 +9.8 68 +15 +16 1006.4 998.9
09 23.06 З 4
{12}
50 км 6/4 600 м
[Cb cap Ac trans]
+17.0 +6.8 51 +17 +21 1007.6 1000.2
12 23.06 З 3-10
{13}
20 км {ливн. осадки} 9/3 1000 м
[Cb cap Ac trans]
+16.0 +8.2 60 +16 +18 1009.0 1001.5
15 23.06 З 2
{11}
20 км {ливн. осадки} 8/3 600 м
[Cb cap Ac trans]
+14.8 +7.8 63 +15 +16 1009.7 1002.2 +18.7 0.0
18 23.06 З 3
{11}
20 км {ливн. осадки} 10/4 1000 м
[Cb cap Ac As]
+12.7 +7.4 70 +11 +11 1010.7 1003.1
21 23.06 З 2 10 км слаб. ливневой дождь 10/9 700 м
[Cb cap Ac As]
+10.4 +8.6 89 +9 +9 1011.3 1003.7
00 24.06 СЗ 2 4000 м слаб. ливневой дождь 10/10 420 м
[Cb cap]
+9.7 +7.9 89 +8 +8 1012.2 1004.5
03 24.06 С 2 4000 м дождь {ливн. осадки} 10/10 270 м
[Frnb Ns]
+6.5 +5.9 96 +4 +4 1014.3 1006.5 +6.5 1
06 24.06 С 2 10 км слаб. ливневой дождь 9/8 660 м
[Cb cap Ac trans]
+7.1 +5.9 92 +5 +6 1016.0 1008.2 +6.4
09 24.06 С 2 20 км {ливн. осадки} 10/10 570 м
[Cb cap]
+8.1 +5.2 82 +6 +6 1017.7 1010.0
12 24.06 С 2 20 км в посл. час ливневой дождь 10/8 600 м
[Cb cap Ac und]
+8.9 +5.2 78 +7 +8 1019.3 1011.5
15 24.06 С 2 20 км в посл. час ливневой дождь 8/8 600 м
[Cb cap]
+8.7 +5.0 78 +7 +8 1020.5 1012.8 +9.6 0.5

 

Местоположение метеостанции Карпогоры (Архангельская область, Россия): широта 63.98 долгота 44.45 высота над уровнем моря 65 м.

В архиве по умолчанию представлена погода в Карпогорах за последнюю неделю. Архивные данные за месяц целиком и за предыдущие месяцы, начиная с января 2011 года, Вы можете получить, выбрав интересующий диапазон дат из раскрывающегося списка и нажав кнопку "Ввод!".


*Определитесь, кто Вы:
робот инопланетянин человек

Внимание! Время в таблицах - всемирное. Для получения местного времени необходимо прибавить поправку, которая равна 3 ч.

Смотрите также архив погоды в соседних городах и на ближайших метеорологических станциях:

Погода в Суре (Архангельская область, Россия) (73 км)
Погода в Пинеге (Архангельская область, Россия) (97 км)
Погода в Лешуконском (Архангельская область, Россия) (120 км)
Погода в Холмогорах (Архангельская область, Россия) (138 км)
Погода в Емецке (Архангельская область, Россия) (142 км)
Погода в Двинском Березнике (Архангельская область, Россия) (150 км)
Погода в Койнасе (Архангельская область, Россия) (176 км)
Погода в Вендинге (Коми, Россия) (181 км)
Погода в Архангельске (Архангельская область, Россия) (189 км)
Погода в Верхней Тойме (Архангельская область, Россия) (197 км)

Пояснения к столбцам:

Ветер - указаны скорость ветра в м/с - средняя за 10 мин, порывы в срок и между сроками (в фигурных скобках) и направление, откуда дует ветер: С - северный, СВ - северо-восточный, В - восточный, ЮВ - юго-восточный, Ю - южный, ЮЗ - юго-западный, З - западный, СЗ - северо-западный.
Видимость - горизонтальная дальность видимости в метрах или километрах. При видимости от 1 до 10 км при отсутствии осадков обычно наблюдается дымка, при ухудшении видимости до 1 км и менее - туман. В сухую погоду видимость может ухудшаться дымом, пылью или мглою.
Явления - указаны атмосферные явления, наблюдавшиеся в срок или в последний час перед сроком; фигурными скобками обозначены явления, наблюдавшиеся между сроками (за 1-3 часа до срока); квадратными скобками обозначены град или гололедные отложения с указанием их диаметра в мм.
Облачность - указаны через наклонную черту общая и нижняя облачность в баллах и высота нижней границы облаков в метрах; квадратными скобками обозначены формы облаков: Ci - перистые, Cs - перисто-слоистые, Cc - перисто-кучевые, Ac - высококучевые, As - высокослоистые, Sc - слоисто-кучевые, Ns - слоисто-дождевые, Cu - кучевые, Cb - кучево-дождевые. Подробнее классификацию облаков см. в Атласе облаков (PDF).
T - Температура воздуха - температура, измеренная на высоте 2 м над землей.
Td - Температура точки росы - температура, при понижении до которой содержащийся в воздухе водяной пар достигнет насыщения.
f - Относительная влажность воздуха - влажноcть воздуха, измеренная на высоте 2 м над землей.
Te - Эффективная температура - температура, которую ощущает одетый по сезону человек в тени. Характеристика душности погоды. При расчете учитывается влияние влажности воздуха и скорости ветра на теплоощущения человека.
Tes - Эффективная температура на солнце - температура, которую ощущает человек, с поправкой на солнечный нагрев. Характеристика знойности погоды. Зависит от высоты солнца над горизонтом, облачности и скорости ветра. Ночью, в пасмурную погоду, а также при ветре 12 м/с и более поправка равна нулю.
P - Атмосферное давление - приведенное к уровню моря атмосферное давление.
Po - Атмосферное давление - измеренное на уровне метеостанции атмосферное давление.
Tmin - Минимальная температура - минимум температуры воздуха на высоте 2 м над землей.
Tmax - Максимальная температура - максимум температуры воздуха на высоте 2 м над землей.
R - Количество осадков - Количество выпавших осадков за период времени, мм. При наведении курсора мыши на число - период времени, за который выпало указанное количество осадков.
R24 - Количество осадков - Количество выпавших осадков за 24 часа, мм.
S - Снежный покров - Высота снежного покрова, см. При наведении курсора мыши на число - состояние снежного покрова и степень покрытия местности в баллах.